DW3637 Weather Reports


time (UTC)temp
C
wind
direction
speed
KPH
gust
KPH
rain 1hr
cm
rain 24hr
cm
rain mn
cm
humidity
%
barometer
mb
20260510224516 20 0.0 3.2 0.00 0.03 0.03 65 1011.6
20260510223515 20 0.0 1.6 0.00 0.05 0.03 65 1011.6
20260510222515 20 0.0 3.2 0.00 0.05 0.03 64 1011.5
20260510221517 20 315 3.2 9.7 0.00 0.08 0.03 62 1011.4
20260510220550 20 248 3.2 14.5 0.00 0.10 0.03 61 1011.3
20260510215518 20 248 4.8 11.3 0.00 0.15 0.03 61 1011.2
20260510214537 20 293 4.8 11.3 0.00 0.15 0.03 59 1011.2
20260510213557 21 293 4.8 11.3 0.00 0.18 0.03 58 1011.0
20260510212518 21 338 3.2 11.3 0.00 0.18 0.03 59 1010.8
20260510211517 20 315 3.2 9.7 0.00 0.20 0.03 64 1010.6
20260510210522 20 270 3.2 11.3 0.00 0.23 0.03 63 1010.7
20260510205538 20 270 3.2 8.0 0.00 0.25 0.03 64 1010.5
20260510204517 20 338 1.6 6.4 0.00 0.28 0.03 70 1010.5
20260510203538 20 270 1.6 6.4 0.00 0.30 0.03 68 1010.3
20260510202517 21 270 1.6 6.4 0.00 0.33 0.03 70 1010.1
20260510201517 21 338 1.6 4.8 0.00 0.36 0.03 69 1010.1
20260510200517 21 270 1.6 4.8 0.03 0.41 0.03 69 1009.9
20260510195537 20 270 3.2 8.0 0.03 0.43 0.03 69 1010.0
20260510194521 20 270 4.8 9.7 0.03 0.46 0.03 68 1010.1
20260510193517 20 248 4.8 11.3 0.03 0.48 0.03 69 1010.2
20260510192517 20 270 4.8 11.3 0.03 0.51 0.03 71 1010.3
20260510191517 20 248 3.2 6.4 0.03 0.51 0.03 72 1010.2
20260510190517 20 225 3.2 9.7 0.00 0.51 0.00 71 1010.4
20260510185518 21 248 4.8 11.3 0.00 0.51 0.00 66 1010.4
20260510184518 21 225 8.0 12.9 0.00 0.51 0.00 63 1010.4
20260510183517 22 248 6.4 16.1 0.00 0.51 0.00 62 1010.5
20260510182517 22 225 3.2 8.0 0.00 0.51 0.00 64 1010.5
20260510181517 21 248 1.6 8.0 0.00 0.51 0.00 65 1010.5
20260510180517 21 248 4.8 9.7 0.00 0.51 0.00 66 1010.5
20260510175519 21 248 6.4 12.9 0.00 0.51 0.00 65 1010.7
20260510174517 21 248 3.2 8.0 0.00 0.51 0.00 63 1010.7
20260510173517 21 248 4.8 12.9 0.00 0.51 0.00 65 1010.7
20260510172537 21 248 6.4 14.5 0.00 0.51 0.00 66 1011.0
20260510171517 21 158 3.2 9.7 0.00 0.51 0.00 68 1011.0
20260510170517 20 248 3.2 11.3 0.00 0.53 0.00 68 1011.1
20260510165517 20 248 6.4 11.3 0.00 0.56 0.00 68 1011.3
20260510164517 20 248 4.8 16.1 0.00 0.56 0.00 69 1011.4
20260510163517 20 248 6.4 14.5 0.00 0.58 0.00 69 1011.4
20260510162517 19 248 4.8 9.7 0.00 0.58 0.00 69 1011.5
20260510161526 19 248 4.8 12.9 0.00 0.61 0.00 73 1011.5
20260510160517 18 248 4.8 12.9 0.00 0.61 0.00 72 1011.7
20260510155519 18 248 4.8 9.7 0.00 0.61 0.00 74 1011.8
20260510154517 17 248 6.4 12.9 0.00 0.61 0.00 76 1012.1
20260510153517 17 248 4.8 12.9 0.00 0.64 0.00 77 1012.0
20260510152517 17 248 3.2 12.9 0.00 0.64 0.00 78 1012.1
20260510151517 17 225 3.2 11.3 0.00 0.64 0.00 77 1012.2
20260510150517 16 270 3.2 9.7 0.00 0.64 0.00 79 1012.1
20260510145519 16 248 3.2 8.0 0.00 0.64 0.00 77 1012.0
20260510144517 16 248 3.2 11.3 0.00 0.64 0.00 81 1012.1
20260510143517 15 248 3.2 8.0 0.00 0.64 0.00 84 1012.1
20260510142516 15 248 3.2 11.3 0.00 0.66 0.00 83 1012.3
20260510141517 15 248 1.6 8.0 0.00 0.66 0.00 86 1012.1
20260510140516 14 248 3.2 9.7 0.00 0.66 0.00 86 1012.1
20260510135519 13 248 1.6 8.0 0.00 0.66 0.00 90 1012.1
20260510134517 13 0.0 4.8 0.00 0.66 0.00 91 1012.2
20260510133516 12 225 1.6 4.8 0.00 0.69 0.00 92 1012.1
20260510132516 12 0.0 3.2 0.00 0.69 0.00 92 1012.2
20260510131517 12 0.0 3.2 0.00 0.69 0.00 93 1012.2
20260510130517 12 248 1.6 4.8 0.00 0.69 0.00 93 1012.1
20260510125552 12 0.0 1.6 0.00 0.69 0.00 93 1012.1
20260510124517 12 0.0 1.6 0.00 0.69 0.00 94 1012.0
20260510123519 12 0.0 1.6 0.00 0.69 0.00 94 1011.9
20260510122517 12 0.0 4.8 0.00 0.69 0.00 94 1011.9
20260510121516 12 248 1.6 4.8 0.00 0.69 0.00 94 1011.9
20260510120525 12 0.0 1.6 0.00 0.71 0.00 95 1011.9
20260510115519 12 0.0 4.8 0.00 0.71 0.00 95 1011.9
20260510114517 12 0.0 4.8 0.00 0.71 0.00 95 1011.7
20260510113524 11 0.0 3.2 0.00 0.74 0.00 96 1011.8
20260510112516 11 0.0 1.6 0.00 0.74 0.00 96 1011.8
20260510111537 11 0.0 1.6 0.00 0.74 0.00 96 1011.7
20260510110517 11 0.0 4.8 0.00 0.74 0.00 96 1011.6
20260510105519 11 0.0 4.8 0.00 0.74 0.00 96 1011.5
20260510104536 11 0.0 1.6 0.00 0.76 0.00 96 1011.4
20260510103516 11 248 1.6 4.8 0.00 0.76 0.00 96 1011.3
20260510102517 11 0.0 3.2 0.00 0.79 0.00 97 1011.3
20260510101519 11 248 1.6 8.0 0.00 0.79 0.00 97 1011.0
20260510100516 11 0.0 4.8 0.00 0.81 0.00 97 1010.7
20260510095539 11 0.0 1.6 0.00 0.84 0.00 97 1010.4
20260510094517 11 225 1.6 3.2 0.00 0.84 0.00 97 1010.5
20260510093516 11 0.0 1.6 0.00 0.84 0.00 97 1010.7
20260510092516 11 0.0 3.2 0.00 0.86 0.00 97 1010.8
20260510091557 11 0.0 4.8 0.00 0.89 0.00 97 1010.6
20260510090536 11 0.0 4.8 0.00 0.91 0.00 96 1010.6
20260510085525 11 248 1.6 6.4 0.00 0.91 0.00 97 1010.8
20260510084517 11 248 1.6 4.8 0.00 0.91 0.00 97 1011.0
20260510083516 11 0.0 3.2 0.00 0.91 0.00 97 1010.9
20260510082516 11 0.0 3.2 0.00 0.91 0.00 97 1010.9
20260510081516 11 248 1.6 3.2 0.00 0.91 0.00 97 1011.0
20260510080517 11 0.0 1.6 0.00 0.91 0.00 97 1011.0
20260510075518 11 248 1.6 4.8 0.00 0.91 0.00 97 1010.9
20260510074517 11 0.0 1.6 0.00 0.91 0.00 97 1010.7
20260510073516 11 0.0 1.6 0.00 0.91 0.00 97 1010.7
20260510072517 11 0.0 4.8 0.00 0.91 0.00 97 1010.7
20260510071536 11 0.0 1.6 0.00 0.91 0.00 97 1010.5
20260510070517 11 0.0 0.0 0.00 0.91 0.00 97 1010.5
20260510065518 11 0.0 3.2 0.00 0.91 0.00 97 1010.6
20260510064516 11 0.0 1.6 0.00 0.91 0.00 97 1010.5
20260510063536 11 0.0 1.6 0.00 0.91 0.00 97 1010.6
20260510062516 11 0.0 0.0 0.00 0.91 0.00 96 1010.5
20260510061516 11 0.0 0.0 0.00 0.91 0.00 96 1010.3
20260510060516 11 0.0 1.6 0.00 0.91 0.00 96 1010.2
20260510055520 11 0.0 1.6 0.00 0.91 0.00 96 1010.2
20260510054516 11 0.0 1.6 0.00 0.91 0.00 96 1010.2
20260510053517 11 0.0 1.6 0.00 0.91 0.00 96 1010.4
20260510052523 11 0.0 1.6 0.00 0.91 0.00 96 1010.7
20260510051516 11 225 1.6 3.2 0.00 0.91 0.00 96 1010.7
20260510050516 11 0.0 1.6 0.00 0.91 0.00 96 1010.6
20260510045518 11 0.0 1.6 0.00 0.91 0.00 96 1010.6
20260510044536 12 0.0 1.6 0.00 0.91 0.00 96 1010.5
20260510043521 12 0.0 0.0 0.00 0.91 0.00 96 1010.6
20260510042536 12 0.0 0.0 0.00 0.91 0.00 96 1010.8
20260510041522 12 0.0 1.6 0.00 0.91 0.00 96 1010.9
20260510040516 12 0.0 0.0 0.00 0.91 0.00 96 1010.8
20260510035517 12 0.0 1.6 0.00 0.91 0.91 96 1010.8
20260510034536 11 0.0 1.6 0.00 0.91 0.91 96 1010.6
20260510033516 11 0.0 0.0 0.00 0.91 0.91 96 1010.7
20260510032516 11 0.0 0.0 0.00 0.91 0.91 96 1010.6
20260510031519 11 0.0 0.0 0.00 0.91 0.91 96 1010.6
20260510030516 11 0.0 0.0 0.00 0.91 0.91 96 1010.5
20260510025520 11 0.0 0.0 0.00 0.91 0.91 96 1010.4
20260510024556 11 0.0 0.0 0.00 0.91 0.91 96 1010.6
20260510023516 11 0.0 0.0 0.00 0.91 0.91 96 1010.4
20260510022516 11 0.0 0.0 0.00 0.91 0.91 96 1010.4
20260510021516 11 0.0 0.0 0.00 0.91 0.91 96 1010.7
20260510020536 11 0.0 0.0 0.00 0.91 0.91 96 1010.9
20260510015519 11 0.0 0.0 0.00 0.91 0.91 96 1011.0
20260510014516 11 0.0 0.0 0.00 0.91 0.91 96 1011.0
20260510013516 11 0.0 0.0 0.00 0.91 0.91 96 1011.1
20260510012536 11 0.0 0.0 0.00 0.91 0.91 96 1010.9
20260510011536 11 0.0 0.0 0.00 0.91 0.91 96 1010.6
20260510010516 11 0.0 0.0 0.00 0.91 0.91 95 1010.3
20260510005538 11 0.0 0.0 0.00 0.91 0.91 95 1010.4
20260510004517 11 0.0 0.0 0.00 0.91 0.91 95 1010.4
20260510003516 11 0.0 1.6 0.00 0.91 0.91 95 1010.2
20260510002516 11 0.0 1.6 0.00 0.91 0.91 95 1010.2
20260510001515 11 0.0 1.6 0.00 0.91 0.91 95 1010.0
20260510000516 11 0.0 1.6 0.00 0.91 0.91 95 1010.2
20260509235519 11 0.0 1.6 0.00 0.91 0.91 95 1010.2
20260509234516 11 0.0 1.6 0.00 0.91 0.91 95 1010.1
20260509233517 11 0.0 4.8 0.03 0.91 0.91 95 1010.1
20260509232516 11 0.0 1.6 0.03 0.91 0.91 95 1010.2
20260509231516 11 248 1.6 9.7 0.05 0.91 0.91 95 1010.1
20260509230516 11 248 1.6 3.2 0.08 0.91 0.91 95 1010.1
20260509225522 11 225 1.6 4.8 0.13 0.91 0.91 96 1010.0